FW8346 Weather Reports


time (UTC)temp
F
wind
direction
speed
knots
gust
knots
rain 1hr
in
rain 24hr
in
rain mn
in
humidity
%
barometer
mb
20260504035233 57 139 0.9 3.5 0.00 0.01 0.01 45 1000.1
20260504034735 57 213 0.9 4.3 0.00 0.01 0.01 43 1000.2
20260504034231 57 152 0.9 4.3 0.00 0.01 0.01 42 1000.3
20260504033731 56 200 0.9 3.5 0.00 0.01 0.01 43 1000.4
20260504033232 56 107 0.9 3.5 0.00 0.01 0.01 43 1000.6
20260504032730 56 226 0.9 3.5 0.00 0.01 0.01 44 1000.8
20260504032228 55 226 0.0 2.6 0.00 0.01 0.01 45 1000.9
20260504031728 55 130 0.0 4.3 0.00 0.01 0.01 46 1001.0
20260504031500 55 105 0.9 3.5 0.00 0.01 0.01 47 1001.2
20260504030722 55 136 0.0 2.6 0.00 0.01 0.01 47 1001.3
20260504030216 54 153 0.0 2.6 0.00 0.01 0.01 46 1001.4
20260504025706 53 210 0.0 0.9 0.00 0.01 0.01 49 1001.5
20260504025200 53 220 0.0 1.7 0.00 0.01 0.01 49 1001.5
20260504024655 53 120 0.0 1.7 0.00 0.01 0.01 50 1001.6
20260504024148 54 214 0.0 0.0 0.00 0.01 0.01 49 1001.7
20260504023642 54 158 0.0 0.0 0.00 0.01 0.01 47 1001.8
20260504023136 54 236 0.0 0.0 0.00 0.01 0.01 46 1001.9
20260504022630 54 236 0.0 0.0 0.00 0.01 0.01 46 1002.0
20260504022123 55 236 0.0 0.0 0.00 0.01 0.01 43 1002.1
20260504021618 55 236 0.0 0.0 0.00 0.01 0.01 42 1002.1
20260504021112 56 264 0.0 0.0 0.00 0.01 0.01 40 1002.2
20260504020606 56 264 0.0 0.0 0.00 0.01 0.01 39 1002.2
20260504020100 56 265 0.0 0.0 0.00 0.01 0.01 40 1002.3
20260504015554 57 264 0.0 0.0 0.00 0.01 0.01 38 1002.5
20260504015319 57 265 0.0 0.0 0.00 0.01 0.01 38 1002.4
20260504014547 58 265 0.0 0.0 0.00 0.01 0.01 37 1002.4
20260504014045 59 264 0.0 0.0 0.00 0.01 0.01 35 1002.4
20260504013548 60 266 0.0 0.0 0.00 0.01 0.01 33 1002.5
20260504013542 59 266 0.0 0.0 0.00 0.01 0.01 34 1002.5
20260504013201 61 266 0.0 0.0 0.00 0.01 0.01 31 1002.6
20260504012038 62 266 0.0 0.0 0.00 0.01 0.01 31 1002.6
20260504011807 62 285 0.0 0.9 0.00 0.01 0.01 30 1002.6
20260504011033 63 326 0.0 1.7 0.00 0.01 0.01 30 1002.5
20260504010804 63 192 0.0 1.7 0.00 0.01 0.01 30 1002.6
20260504010028 64 274 0.0 2.6 0.00 0.01 0.01 29 1002.6
20260504005527 64 270 0.9 4.3 0.00 0.01 0.01 29 1002.7
20260504005027 65 248 0.9 5.2 0.00 0.01 0.01 28 1002.8
20260504004759 65 276 0.9 5.2 0.00 0.01 0.01 29 1002.7
20260504004026 65 295 0.9 5.2 0.00 0.01 0.01 29 1002.8
20260504003526 65 311 0.9 5.2 0.00 0.01 0.01 29 1002.7
20260504003030 65 333 0.9 4.3 0.00 0.01 0.01 28 1002.6
20260504003024 66 295 0.9 6.1 0.00 0.01 0.01 28 1002.6
20260504002023 66 284 0.9 6.1 0.00 0.01 0.01 27 1002.6
20260504001524 67 285 1.7 7.8 0.00 0.01 0.01 27 1002.6
20260504001255 67 250 1.7 7.8 0.00 0.01 0.01 25 1002.7
20260504000522 68 288 0.9 7.8 0.00 0.01 0.01 26 1002.7
20260504000022 68 345 0.9 7.8 0.00 0.01 0.01 25 1002.9
20260503235522 68 281 1.7 6.1 0.00 0.01 0.01 25 1002.9
20260503235022 68 198 0.9 6.1 0.00 0.01 0.01 26 1003.0
20260503234524 67 281 0.9 3.5 0.00 0.01 0.01 26 1003.0
20260503234020 67 70 0.9 3.5 0.00 0.01 0.01 26 1003.0
20260503233521 68 304 1.7 5.2 0.00 0.01 0.01 26 1003.0
20260503233021 68 321 1.7 7.0 0.00 0.01 0.01 25 1003.1
20260503232521 68 320 1.7 7.0 0.00 0.01 0.01 25 1003.2
20260503232022 68 301 1.7 7.0 0.00 0.01 0.01 27 1003.3
20260503231520 67 342 0.9 7.0 0.00 0.01 0.01 25 1003.3
20260503231022 68 153 0.9 2.6 0.00 0.01 0.01 25 1003.4
20260503230521 68 308 0.0 1.7 0.00 0.01 0.01 25 1003.3
20260503230251 68 231 0.0 3.5 0.00 0.01 0.01 27 1003.3
20260503225518 68 276 1.7 7.8 0.00 0.01 0.01 25 1003.4
20260503225020 68 337 2.6 7.8 0.00 0.01 0.01 25 1003.3
20260503224517 68 338 1.7 6.1 0.00 0.01 0.01 26 1003.3
20260503224016 68 228 0.9 5.2 0.00 0.01 0.01 26 1003.4
20260503223748 68 320 1.7 6.1 0.00 0.01 0.01 26 1003.4
20260503223248 68 307 2.6 7.0 0.00 0.01 0.01 32 1003.5
20260503222514 69 195 1.7 7.0 0.00 0.01 0.01 25 1003.5
20260503222244 69 226 2.6 7.8 0.00 0.01 0.01 25 1003.7
20260503221514 68 323 3.5 8.7 0.00 0.01 0.01 25 1003.7
20260503221013 68 320 2.6 8.7 0.00 0.01 0.01 25 1003.7
20260503220512 68 322 2.6 9.6 0.00 0.01 0.01 26 1003.8
20260503220014 68 272 3.5 9.6 0.00 0.01 0.01 26 1003.9
20260503215508 68 328 2.6 7.8 0.00 0.01 0.01 27 1004.0
20260503215002 68 276 2.6 10.4 0.00 0.01 0.01 26 1004.0
20260503214456 68 266 2.6 10.4 0.00 0.01 0.01 25 1004.0
20260503213950 68 205 3.5 9.6 0.00 0.01 0.01 26 1004.2
20260503213444 67 27 2.6 11.3 0.00 0.01 0.01 26 1004.1
20260503212938 67 347 3.5 10.4 0.00 0.01 0.01 26 1004.2
20260503212703 67 314 3.5 9.6 0.00 0.01 0.01 26 1004.4
20260503212156 67 328 4.3 9.6 0.00 0.01 0.01 28 1004.4
20260503211420 67 321 5.2 11.3 0.00 0.01 0.01 30 1004.4
20260503210914 66 327 5.2 12.2 0.00 0.01 0.01 26 1004.5
20260503210408 66 264 4.3 12.2 0.00 0.01 0.01 28 1004.6
20260503205908 66 311 4.3 11.3 0.00 0.01 0.01 28 1004.7
20260503205635 65 346 7.0 16.5 0.00 0.01 0.01 29 1004.7
20260503204905 65 336 8.7 16.5 0.00 0.01 0.01 29 1004.9
20260503204406 65 323 6.1 15.6 0.00 0.01 0.01 32 1005.0
20260503203904 65 331 7.0 16.5 0.00 0.01 0.01 29 1005.1
20260503203402 65 274 7.8 16.5 0.00 0.01 0.01 28 1005.2
20260503203134 66 328 4.3 14.8 0.00 0.01 0.01 26 1005.2
20260503202403 65 349 4.3 11.3 0.00 0.01 0.01 26 1005.2
20260503201904 65 286 5.2 15.6 0.00 0.01 0.01 25 1005.3
20260503201402 65 312 5.2 15.6 0.00 0.01 0.01 26 1005.3
20260503200902 65 358 5.2 14.8 0.00 0.01 0.01 28 1005.3
20260503200402 65 335 5.2 14.8 0.00 0.01 0.01 26 1005.5
20260503195905 65 322 5.2 11.3 0.00 0.01 0.01 27 1005.6
20260503195404 65 340 4.3 11.3 0.00 0.01 0.01 28 1005.6
20260503194857 65 340 3.5 9.6 0.00 0.01 0.01 31 1005.5
20260503194350 65 292 4.3 11.3 0.00 0.01 0.01 26 1005.6
20260503193845 65 298 5.2 12.2 0.00 0.01 0.01 27 1005.7
20260503193338 65 264 5.2 12.2 0.00 0.01 0.01 27 1005.6
20260503192831 65 338 4.3 13.9 0.00 0.01 0.01 27 1005.6
20260503192326 65 7 3.5 13.9 0.00 0.01 0.01 25 1005.7
20260503192051 65 293 3.5 11.3 0.00 0.01 0.01 27 1005.6
20260503191314 65 332 6.1 15.6 0.00 0.01 0.01 26 1005.7
20260503190808 65 343 6.1 15.6 0.00 0.01 0.01 27 1005.7
20260503190303 65 341 4.3 11.3 0.00 0.01 0.01 30 1005.7
20260503185756 65 288 6.1 14.8 0.00 0.01 0.01 28 1005.8
20260503185250 64 345 7.8 15.6 0.00 0.01 0.01 34 1005.8
20260503184744 64 308 7.0 15.6 0.00 0.01 0.01 29 1006.0
20260503184239 64 330 7.0 17.4 0.00 0.01 0.01 27 1006.0
20260503183732 64 356 7.8 16.5 0.00 0.01 0.01 31 1006.0
20260503183226 63 349 9.6 16.5 0.00 0.01 0.01 27 1006.1
20260503182720 63 332 8.7 17.4 0.00 0.01 0.01 28 1006.0
20260503182215 64 351 8.7 17.4 0.00 0.01 0.01 26 1006.2
20260503181708 64 344 7.0 13.9 0.00 0.01 0.01 30 1006.1
20260503181202 64 311 5.2 13.9 0.00 0.01 0.01 23 1006.2
20260503180656 64 295 6.1 13.9 0.00 0.01 0.01 22 1006.4
20260503180150 63 323 7.8 18.2 0.00 0.01 0.01 22 1006.3
20260503175644 63 334 8.7 18.2 0.00 0.01 0.01 23 1006.3
20260503175138 64 352 7.8 16.5 0.00 0.01 0.01 21 1006.4
20260503174632 64 342 7.8 13.0 0.00 0.01 0.01 21 1006.3
20260503174126 63 18 7.8 16.5 0.00 0.01 0.01 24 1006.3
20260503173622 64 335 7.0 16.5 0.00 0.01 0.01 21 1006.4
20260503173114 64 345 6.1 13.9 0.00 0.01 0.01 25 1006.4
20260503172607 64 306 6.1 13.9 0.00 0.01 0.01 30 1006.4
20260503172102 64 329 5.2 11.3 0.00 0.01 0.01 30 1006.4
20260503171556 63 335 5.2 10.4 0.00 0.01 0.01 31 1006.4
20260503171050 63 342 6.1 14.8 0.00 0.01 0.01 32 1006.6
20260503170544 63 295 7.0 14.8 0.00 0.01 0.01 35 1006.4
20260503150826 60 321 8.7 14.8 0.00 0.01 0.01 48 1006.2
20260503150551 60 341 10.4 13.9 0.00 0.01 0.01 51 1006.2
20260503140224 57 353 8.7 14.8 0.00 0.01 0.01 60 1006.1
20260503131224 53 5 5.2 9.6 0.00 0.01 0.01 69 1006.0
20260503130724 52 5 5.2 7.8 0.00 0.01 0.01 70 1006.0
20260503130225 52 350 5.2 7.0 0.00 0.01 0.01 69 1005.9
20260503110217 43 231 0.0 0.0 0.00 0.01 0.01 87 1004.5
20260503100125 44 217 0.0 0.0 0.00 0.01 0.01 92 1004.6
20260503090114 47 217 0.0 0.0 0.00 0.01 0.01 77 1004.7
20260503081557 48 172 0.0 0.0 0.00 0.01 0.01 72 1005.0
20260503081049 48 165 0.0 0.0 0.00 0.01 0.01 72 1005.0
20260503080816 48 165 0.0 0.0 0.00 0.01 0.01 71 1005.1
20260503080311 49 165 0.0 0.0 0.00 0.01 0.01 71 1005.1
20260503072456 52 147 0.9 3.5 0.01 0.01 0.01 65 1005.1
20260503071950 53 155 0.0 3.5 0.01 0.01 0.01 64 1005.2
20260503071444 53 222 0.0 1.7 0.01 0.01 0.01 65 1005.2
20260503070939 53 135 0.0 1.7 0.01 0.01 0.01 65 1005.2
20260503070933 53 252 0.0 3.5 0.01 0.01 0.01 65 1005.3
20260503054845 55 160 0.9 2.6 0.00 0.00 0.00 65 1007.1
20260503054345 56 68 0.0 2.6 0.00 0.00 0.00 57 1007.5
20260503053843 56 54 1.7 6.1 0.00 0.00 0.00 57 1007.4
20260503053347 55 51 7.0 10.4 0.00 0.00 0.00 62 1007.0
20260503053343 56 219 4.3 8.7 0.00 0.00 0.00 61 1007.3
20260503052341 55 46 7.0 10.4 0.00 0.00 0.00 62 1007.0
20260503052111 55 13 5.2 9.6 0.00 0.00 0.00 66 1006.9
20260503051342 55 35 2.6 7.0 0.00 0.00 0.00 63 1006.8
20260503050842 55 88 0.9 2.6 0.00 0.00 0.00 60 1006.5
20260503050341 54 110 0.9 2.6 0.00 0.00 0.00 60 1006.3
20260503045842 54 91 0.0 1.7 0.00 0.00 0.00 61 1006.3
20260503045336 54 224 0.0 1.7 0.00 0.00 0.00 61 1006.4
20260503044830 54 113 0.9 3.5 0.00 0.00 0.00 61 1006.4
20260503044324 54 126 0.9 3.5 0.00 0.00 0.00 62 1006.4
20260503043818 54 174 0.0 1.7 0.00 0.00 0.00 62 1006.6
20260503043312 54 145 0.0 1.7 0.00 0.00 0.00 64 1006.8
20260503042805 54 132 0.0 1.7 0.00 0.00 0.00 69 1007.0
20260503042300 54 100 0.0 0.0 0.00 0.00 0.00 66 1007.1
20260503041753 54 103 0.0 0.9 0.00 0.00 0.00 59 1007.1
20260503041248 54 102 0.0 2.6 0.00 0.00 0.00 60 1007.0
20260503040742 54 246 0.0 2.6 0.00 0.00 0.00 61 1007.1
20260503040236 55 152 0.0 0.9 0.00 0.00 0.00 59 1007.2
20260503035730 55 160 0.0 0.9 0.00 0.00 0.00 59 1007.3